Погода в Резенди

Бразилия     22°27′49″S   44°26′32″W
темп.,
°C
ветер,
м/с
пор.,
м/с
влажн.,
%
обл.,
%
осадки,
мм/ч
давл.,
гПа
погр.,
м
27 февраля, сб
сб2700:00+18всв1199100 1.9 101674
03:00+18в1299100 2.6 1014103
06:00+18в12100100 1.3 1015110
09:00+19юв1199100 2.2 1016116
12:00+21ю0195100 0.7 1016163
15:00+21ююз1294100 3.6 101499
18:00+20сз1195100 0.9 101427
21:00+19ссв0195100 1.3 101524
28 февраля, вс
вс2800:00+18св0197100 0.0 101529
03:00+17ссв019799 0.0 101423
06:00+17ссз019789 0.0 101523
09:00+21вюв228894 0.1 1016388
12:00+24в2379100 0.8 1015658
15:00+24всв2386100 4.8 1012668
18:00+22в1291100 1.8 101231
21:00+19вюв0195100 2.3 101523
1 марта, пн
пн100:00+18ю019780 0.0 101525
03:00+17с019778 0.0 101323
06:00+16з019761 0.0 101423
09:00+21в118771 0.0 1015377
12:00+25в228096 1.1 1014481
15:00+25в228396 5.1 1011413
18:00+22вюв129289 2.1 101235
21:00+19з119551 3.2 101424
2 марта, вт
вт200:00+18з019623 0.0 101523
03:00+18зсз019646 0.0 101423
06:00+17зсз119671 0.0 101524
09:00+23вюв117863 0.0 1016378
12:00+27в226834 0.1 1015682
15:00+26ю127465 1.4 1013492
18:00+22вюв129193 0.9 101326
21:00+19з119497 1.0 101624
3 марта, ср
ср300:00+18зсз119478 0.0 101624
03:00+17зсз119478 0.0 101524
06:00+16зсз119280 0.0 101625
09:00+24ююв117059 0.0 1017417
12:00+26вюв217073 0.2 1016545
15:00+27ююв227263 1.7 1014963
18:00+21всв239474 2.6 1014100
21:00+20сз119587 4.3 101730